Content
SEND FEEDBACK

Daily
Averages
Monthly
Summary
United States of America

CHELSEA, MICHIGAN


Home > North America > United States > Michigan
Elevation: 900 feet     Latitude: 42 19N     Longitude: 084 01W

WEATHER
 
SELECT A DAY
Number of Records: 203,923;   Date Range: 1/1/95 - 8/30/14
 
SHARE

PRINT THIS DATA

[ ← Previous Day ]
WEATHER ALMANAC - FEBRUARY 20, 2013
[ Next Day → ]
[ °C ]   °F
Weather ElementAverageHighLow
Temperature19.8 °F21.9 °F (1:53 pm)15.1 °F (6:53 am)
Dewpoint10.3 °F14 °F (8:53 pm)5 °F (5:53 am)
Humidity67 %79 % (2:11 am)57 % (9:53 am)
Barometer30.13 in30.26 in (11:53 pm)29.96 in (2:11 am)
Wind Speed14.2 mph23 mph (5:53 am)
Wind Gust28.8 mph (5:53 am)
Weather ElementAverage
Visibility9.1 mi
Wind DirectionWNW (294.8 °)

Weather ElementTotal
Precipitation---
Heating Degree Days46.5 (Base 65)
Averaged from 25 records on February 20, 2013
WEATHER CONDITIONS BREAKOUT
WIND DIRECTION BREAKOUT
WEATHER BY HOUR - FEBRUARY 20, 2013
[ °C ]   °F
Local TimeTemperatureDewpointHumidityBarometerVisibilityWind DirectionWind SpeedGust SpeedPrecipitationEventsConditions
12:53 AM18.0 °F10.0 °F71 %29.98 in10.0 miWest (280°)17.3 mph26.5 mphOvercast
1:53 AM18.0 °F12.0 °F78 %29.99 in7.0 miWest (270°)10.4 mph19.6 mph0.00 inSnowLight Snow
2:11 AM17.6 °F12.2 °F79 %29.96 in9.0 miWest (270°)15.0 mph20.7 mph0.00 inSnowLight Snow
2:42 AM17.6 °F10.4 °F73 %29.96 in10.0 miWest (280°)19.6 mph0.00 inOvercast
2:53 AM18.0 °F10.0 °F71 %30.00 in10.0 miWest (270°)15.0 mph25.3 mph0.00 inOvercast
3:53 AM18.0 °F10.9 °F74 %30.01 in5.0 miWNW (290°)16.1 mph24.2 mph0.00 inSnowLight Snow
4:53 AM17.1 °F8.1 °F68 %30.05 in8.0 miWNW (300°)12.7 mph26.5 mph0.00 inSnowLight Snow
5:53 AM17.1 °F5.0 °F59 %30.07 in10.0 miWNW (290°)23.0 mph28.8 mph0.00 inOvercast
6:53 AM15.1 °F8.1 °F74 %30.09 in10.0 miWest (280°)12.7 mph24.2 mphScattered Clouds
8:53 AM18.0 °F8.1 °F65 %30.12 in10.0 miWNW (300°)17.3 mph27.6 mphOvercast
9:53 AM19.9 °F7.0 °F57 %30.13 in10.0 miWNW (300°)16.1 mph21.9 mphOvercast
10:53 AM19.9 °F7.0 °F57 %30.14 in10.0 miWNW (300°)17.3 mph27.6 mphOvercast
11:53 AM21.0 °F9.0 °F60 %30.16 in8.0 miNW (320°)15.0 mph25.3 mph0.00 inSnowLight Snow
12:53 PM21.0 °F9.0 °F60 %30.17 in7.0 miWNW (300°)12.7 mph21.9 mph0.00 inSnowLight Snow
1:53 PM21.9 °F9.0 °F58 %30.18 in10.0 miWNW (300°)12.7 mph0.00 inOvercast
2:53 PM21.9 °F10.0 °F60 %30.18 in10.0 miWNW (290°)13.8 mph23.0 mph0.00 inOvercast
3:53 PM21.9 °F10.0 °F60 %30.21 in9.0 miWest (280°)12.7 mph0.00 inSnowLight Snow
4:53 PM21.0 °F10.9 °F65 %30.24 in9.0 miWest (270°)16.1 mph0.00 inSnowLight Snow
5:53 PM21.0 °F10.9 °F65 %30.23 in10.0 miNW (310°)15.0 mph0.00 inOvercast
6:53 PM21.0 °F12.0 °F68 %30.23 in10.0 miWNW (300°)9.2 mphOvercast
7:53 PM21.9 °F12.9 °F68 %30.24 in10.0 miWNW (300°)12.7 mphOvercast
8:53 PM21.9 °F14.0 °F72 %30.25 in9.0 miWNW (300°)6.9 mph0.00 inSnowLight Snow
9:53 PM21.9 °F14.0 °F72 %30.25 in8.0 miNW (310°)11.5 mph19.6 mph0.00 inSnowLight Snow
10:53 PM21.9 °F14.0 °F72 %30.25 in9.0 miNNW (330°)13.8 mph18.4 mph0.00 inSnowLight Snow
11:53 PM21.9 °F12.9 °F68 %30.26 in10.0 miNNW (330°)10.4 mph0.00 inOvercast
Hourly data recorded from KARB, located miles away from Chelsea, Michigan







STORIES FROM OUR PARTNERS